Weather in Gat

Ukraine / Zakarpattia District     48°19′13″N   22°38′22″E
temp.,
°C
wind,
m/s
gust,
m/s
humid.,
%
clouds,
%
prec.,
mm/h
press.,
hPa
HPBL,
m
23 april, fri
fri2300:00+5n2389100 0.0 101878
03:00+4n2286100 0.0 101829
06:00+3nnw2384100 0.0 101845
09:00+7nnw467214 0.0 1020301
12:00+11nw66504 0.0 10211454
15:00+12wnw68435 0.0 10212066
18:00+11nw665852 0.1 10211428
21:00+7nw367185 0.1 1023126
24 april, sat
sat2400:00+5nw227199 0.0 102426
03:00+4nw237476 0.0 102453
06:00+2n238319 0.0 102438
09:00+6n23670 0.0 1025304
12:00+10nw355022 0.0 10251666
15:00+12nw464871 0.0 10232004
18:00+11wsw235311 0.0 10221019
21:00+7ese116825 0.0 102210
25 april, sun
sun2500:00+6se117082 0.0 102212
03:00+6se2269100 0.0 102149
06:00+5ese1173100 0.0 102012
09:00+8nne2373100 0.0 1021501
12:00+10ne336897 0.1 10211086
15:00+11nw336273 0.5 10191151
18:00+12nw445352 0.2 10181547
21:00+7nnw3664100 0.3 1019124
26 april, mon
mon2600:00+5n236486 0.0 102064
03:00+2nnw34662 0.0 102069
06:000nnw22690 0.0 102120
09:00+6n22575 0.0 1021268
12:00+10nw333955 0.0 10201795
15:00+11wnw4441100 0.0 10182196
18:00+10wsw334489 0.0 10171413
21:00+6ene015833 0.0 101610
27 april, tue
tue2700:00+4n237586 0.0 101737
03:00+2ne2495100 0.0 101774
06:00+1nne11904 0.0 101611
09:00+6ene12681 0.0 1017316
12:00+11nne12492 0.0 10161189
15:00+13wnw114112 0.0 10141538
18:00+13nne1241100 0.0 10121132
21:00+8n225596 0.0 101210